contact:dominique.lefevre@mio.osupytheas.fr, maurice.libes@osupytheas.fr, didier.mallarino@osupytheas.fr
Project:EMSO http://www.emso-fr.org/EMSO-France
Depth: 2436.0 m
Title:EMSO Ligure Ouest : Data MII capteur CSTAR
DateTime,Latitude,Longitude,Instrument_Serial,Reference_Counts,Signal_Counts,Corrected_Signal_raw_counts,Calculated_Beam_c_inverse_meters,Internal_thermistor_counts
DateTime,Latitude,Longitude,Instrument_Serial,Reference_Counts,Signal_Counts,Corrected_Signal_raw_counts,Calculated_Beam_c_inverse_meters,Internal_thermistor_counts
2022-01-30T00:02:10,42.805,6.029,CST-1368DR,4943,6224,13450,0.597,551
2022-01-30T00:05:12,42.805,6.029,CST-1368DR,4942,6224,13452,0.597,551
2022-01-30T00:08:13,42.805,6.029,CST-1368DR,4942,6224,13453,0.596,551
2022-01-30T00:11:15,42.805,6.029,CST-1368DR,4943,6225,13452,0.597,551
2022-01-30T00:14:16,42.805,6.029,CST-1368DR,4943,6226,13454,0.596,551
2022-01-30T00:17:18,42.805,6.029,CST-1368DR,4942,6225,13454,0.596,551
2022-01-30T00:20:19,42.805,6.029,CST-1368DR,4942,6225,13456,0.595,551
2022-01-30T00:23:21,42.805,6.029,CST-1368DR,4943,6226,13453,0.596,551
2022-01-30T00:26:23,42.805,6.029,CST-1368DR,4943,6224,13450,0.597,551
2022-01-30T00:29:24,42.805,6.029,CST-1368DR,4943,6225,13452,0.597,551
2022-01-30T00:32:26,42.805,6.029,CST-1368DR,4943,6225,13452,0.597,551
2022-01-30T00:35:27,42.805,6.029,CST-1368DR,4943,6225,13452,0.597,551
2022-01-30T00:38:29,42.805,6.029,CST-1368DR,4942,6225,13454,0.596,551
2022-01-30T00:41:31,42.805,6.029,CST-1368DR,4943,6224,13450,0.597,551
2022-01-30T00:44:32,42.805,6.029,CST-1368DR,4942,6225,13454,0.596,551
2022-01-30T00:47:34,42.805,6.029,CST-1368DR,4942,6225,13456,0.595,551
2022-01-30T00:50:35,42.805,6.029,CST-1368DR,4943,6224,13450,0.597,551
2022-01-30T00:53:37,42.805,6.029,CST-1368DR,4942,6224,13453,0.596,551
2022-01-30T00:56:38,42.805,6.029,CST-1368DR,4942,6223,13451,0.597,551
2022-01-30T00:59:40,42.805,6.029,CST-1368DR,4942,6225,13454,0.596,551
2022-01-30T01:02:42,42.805,6.029,CST-1368DR,4942,6225,13455,0.596,551
2022-01-30T01:05:43,42.805,6.029,CST-1368DR,4942,6226,13456,0.595,551
2022-01-30T01:08:45,42.805,6.029,CST-1368DR,4942,6225,13454,0.596,551
2022-01-30T01:11:46,42.805,6.029,CST-1368DR,4942,6224,13453,0.596,551
2022-01-30T01:14:48,42.805,6.029,CST-1368DR,4942,6225,13454,0.596,551
2022-01-30T01:17:49,42.805,6.029,CST-1368DR,4942,6224,13453,0.596,551
2022-01-30T01:20:51,42.805,6.029,CST-1368DR,4942,6225,13454,0.596,551
2022-01-30T01:23:53,42.805,6.029,CST-1368DR,4942,6225,13455,0.596,551
2022-01-30T01:26:54,42.805,6.029,CST-1368DR,4942,6225,13455,0.596,551
2022-01-30T01:29:56,42.805,6.029,CST-1368DR,4942,6224,13453,0.596,551
2022-01-30T01:32:57,42.805,6.029,CST-1368DR,4942,6225,13454,0.596,551
2022-01-30T01:35:59,42.805,6.029,CST-1368DR,4942,6224,13452,0.597,551
2022-01-30T01:39:01,42.805,6.029,CST-1368DR,4942,6225,13455,0.596,551
2022-01-30T01:42:02,42.805,6.029,CST-1368DR,4942,6224,13453,0.596,551
2022-01-30T01:45:04,42.805,6.029,CST-1368DR,4942,6222,13448,0.598,551
2022-01-30T01:48:05,42.805,6.029,CST-1368DR,4942,6224,13453,0.596,551
2022-01-30T01:51:07,42.805,6.029,CST-1368DR,4942,6225,13455,0.596,551
2022-01-30T01:54:08,42.805,6.029,CST-1368DR,4942,6221,13446,0.598,551
2022-01-30T01:57:10,42.805,6.029,CST-1368DR,4942,6224,13453,0.596,551
2022-01-30T02:00:12,42.805,6.029,CST-1368DR,4942,6223,13450,0.597,551
2022-01-30T02:03:13,42.805,6.029,CST-1368DR,4942,6224,13453,0.596,551
2022-01-30T02:06:15,42.805,6.029,CST-1368DR,4942,6224,13453,0.596,551
2022-01-30T02:09:16,42.805,6.029,CST-1368DR,4942,6221,13445,0.599,551
2022-01-30T02:12:18,42.805,6.029,CST-1368DR,4942,6223,13451,0.597,551
2022-01-30T02:15:20,42.805,6.029,CST-1368DR,4942,6223,13451,0.597,551
2022-01-30T02:18:21,42.805,6.029,CST-1368DR,4942,6224,13453,0.596,551
2022-01-30T02:21:23,42.805,6.029,CST-1368DR,4942,6225,13454,0.596,551
2022-01-30T02:24:24,42.805,6.029,CST-1368DR,4942,6217,13437,0.601,551
2022-01-30T02:27:26,42.805,6.029,CST-1368DR,4942,6225,13454,0.596,551
2022-01-30T02:30:27,42.805,6.029,CST-1368DR,4942,6224,13453,0.596,551
2022-01-30T02:33:29,42.805,6.029,CST-1368DR,4942,6223,13451,0.597,551
2022-01-30T02:36:31,42.805,6.029,CST-1368DR,4942,6217,13438,0.601,551
2022-01-30T02:39:32,42.805,6.029,CST-1368DR,4942,6224,13452,0.597,551
2022-01-30T02:42:34,42.805,6.029,CST-1368DR,4942,6224,13452,0.597,551
2022-01-30T02:45:35,42.805,6.029,CST-1368DR,4942,6224,13452,0.597,551
2022-01-30T02:48:37,42.805,6.029,CST-1368DR,4942,6223,13451,0.597,551
2022-01-30T02:51:38,42.805,6.029,CST-1368DR,4942,6223,13451,0.597,551
2022-01-30T02:54:40,42.805,6.029,CST-1368DR,4942,6224,13452,0.597,551
2022-01-30T02:57:42,42.805,6.029,CST-1368DR,4942,6223,13451,0.597,551
2022-01-30T03:00:43,42.805,6.029,CST-1368DR,4942,6223,13451,0.597,551
2022-01-30T03:03:45,42.805,6.029,CST-1368DR,4942,6223,13451,0.597,550
2022-01-30T03:06:46,42.805,6.029,CST-1368DR,4942,6224,13453,0.596,551
2022-01-30T03:09:48,42.805,6.029,CST-1368DR,4942,6224,13452,0.597,551
2022-01-30T03:12:50,42.805,6.029,CST-1368DR,4942,6223,13451,0.597,551
2022-01-30T03:15:51,42.805,6.029,CST-1368DR,4942,6224,13452,0.597,551
2022-01-30T03:18:53,42.805,6.029,CST-1368DR,4942,6224,13452,0.597,551
2022-01-30T03:21:54,42.805,6.029,CST-1368DR,4942,6224,13453,0.596,551
2022-01-30T03:24:56,42.805,6.029,CST-1368DR,4942,6224,13452,0.597,551
2022-01-30T03:27:57,42.805,6.029,CST-1368DR,4942,6224,13452,0.597,551
2022-01-30T03:30:59,42.805,6.029,CST-1368DR,4942,6223,13451,0.597,551
2022-01-30T03:34:01,42.805,6.029,CST-1368DR,4942,6222,13448,0.598,551
2022-01-30T03:37:02,42.805,6.029,CST-1368DR,4942,6223,13451,0.597,551
2022-01-30T03:40:04,42.805,6.029,CST-1368DR,4942,6223,13451,0.597,551
2022-01-30T03:43:05,42.805,6.029,CST-1368DR,4942,6221,13446,0.598,551
2022-01-30T03:46:07,42.805,6.029,CST-1368DR,4942,6224,13452,0.597,551
2022-01-30T03:49:09,42.805,6.029,CST-1368DR,4942,6222,13448,0.598,551
2022-01-30T03:52:10,42.805,6.029,CST-1368DR,4942,6223,13451,0.597,551
2022-01-30T03:55:12,42.805,6.029,CST-1368DR,4942,6223,13450,0.597,550
2022-01-30T03:58:13,42.805,6.029,CST-1368DR,4942,6220,13444,0.599,551
2022-01-30T04:01:15,42.805,6.029,CST-1368DR,4942,6222,13449,0.598,551
2022-01-30T04:04:16,42.805,6.029,CST-1368DR,4942,6222,13448,0.598,551
2022-01-30T04:07:18,42.805,6.029,CST-1368DR,4942,6222,13449,0.598,551
2022-01-30T04:10:20,42.805,6.029,CST-1368DR,4942,6223,13451,0.597,551
2022-01-30T04:13:21,42.805,6.029,CST-1368DR,4942,6222,13448,0.598,551
2022-01-30T04:16:23,42.805,6.029,CST-1368DR,4942,6223,13451,0.597,551
2022-01-30T04:19:24,42.805,6.029,CST-1368DR,4942,6222,13449,0.598,551
2022-01-30T04:22:26,42.805,6.029,CST-1368DR,4942,6222,13448,0.598,551
2022-01-30T04:25:27,42.805,6.029,CST-1368DR,4942,6222,13447,0.598,551
2022-01-30T04:28:29,42.805,6.029,CST-1368DR,4942,6223,13450,0.597,551
2022-01-30T04:31:31,42.805,6.029,CST-1368DR,4942,6222,13448,0.598,551
2022-01-30T04:34:32,42.805,6.029,CST-1368DR,4942,6223,13451,0.597,551
2022-01-30T04:37:34,42.805,6.029,CST-1368DR,4942,6221,13446,0.598,551
2022-01-30T04:40:35,42.805,6.029,CST-1368DR,4942,6222,13447,0.598,551
2022-01-30T04:43:37,42.805,6.029,CST-1368DR,4942,6222,13449,0.598,551
2022-01-30T04:46:39,42.805,6.029,CST-1368DR,4942,6222,13448,0.598,551
2022-01-30T04:49:40,42.805,6.029,CST-1368DR,4942,6222,13447,0.598,551
2022-01-30T04:52:42,42.805,6.029,CST-1368DR,4942,6220,13445,0.599,551
2022-01-30T04:55:43,42.805,6.029,CST-1368DR,4942,6218,13440,0.600,551
2022-01-30T04:58:45,42.805,6.029,CST-1368DR,4942,6218,13440,0.600,551
2022-01-30T05:01:46,42.805,6.029,CST-1368DR,4942,6218,13440,0.600,551
2022-01-30T05:04:48,42.805,6.029,CST-1368DR,4942,6223,13450,0.597,551
2022-01-30T05:07:50,42.805,6.029,CST-1368DR,4942,6222,13449,0.598,551
2022-01-30T05:10:51,42.805,6.029,CST-1368DR,4942,6222,13447,0.598,551
2022-01-30T05:13:53,42.805,6.029,CST-1368DR,4942,6222,13448,0.598,551
2022-01-30T05:16:54,42.805,6.029,CST-1368DR,4942,6222,13449,0.598,551
2022-01-30T05:19:56,42.805,6.029,CST-1368DR,4942,6221,13445,0.599,551
2022-01-30T05:22:58,42.805,6.029,CST-1368DR,4942,6222,13448,0.598,551
2022-01-30T05:25:59,42.805,6.029,CST-1368DR,4942,6222,13447,0.598,551
2022-01-30T05:29:01,42.805,6.029,CST-1368DR,4942,6221,13446,0.598,551
2022-01-30T05:32:02,42.805,6.029,CST-1368DR,4942,6221,13447,0.598,551
2022-01-30T05:35:04,42.805,6.029,CST-1368DR,4942,6219,13441,0.600,551
2022-01-30T05:38:05,42.805,6.029,CST-1368DR,4942,6222,13448,0.598,551
2022-01-30T05:41:07,42.805,6.029,CST-1368DR,4942,6221,13445,0.599,551
2022-01-30T05:44:09,42.805,6.029,CST-1368DR,4942,6223,13450,0.597,551
2022-01-30T05:47:10,42.805,6.029,CST-1368DR,4942,6222,13447,0.598,551
2022-01-30T05:50:12,42.805,6.029,CST-1368DR,4942,6221,13447,0.598,550
2022-01-30T05:53:13,42.805,6.029,CST-1368DR,4942,6222,13448,0.598,551
2022-01-30T05:56:15,42.805,6.029,CST-1368DR,4942,6222,13447,0.598,551
2022-01-30T05:59:16,42.805,6.029,CST-1368DR,4942,6222,13449,0.598,551
2022-01-30T06:02:18,42.805,6.029,CST-1368DR,4942,6222,13448,0.598,551
2022-01-30T06:05:20,42.805,6.029,CST-1368DR,4942,6223,13450,0.597,551
2022-01-30T06:08:21,42.805,6.029,CST-1368DR,4942,6221,13445,0.599,551
2022-01-30T06:11:23,42.805,6.029,CST-1368DR,4942,6221,13445,0.599,551
2022-01-30T06:14:24,42.805,6.029,CST-1368DR,4942,6221,13447,0.598,551
2022-01-30T06:17:26,42.805,6.029,CST-1368DR,4942,6222,13448,0.598,551
2022-01-30T06:20:28,42.805,6.029,CST-1368DR,4942,6222,13447,0.598,551
2022-01-30T06:23:29,42.805,6.029,CST-1368DR,4941,6222,13451,0.597,551
2022-01-30T06:26:31,42.805,6.029,CST-1368DR,4942,6221,13447,0.598,551
2022-01-30T06:29:32,42.805,6.029,CST-1368DR,4942,6220,13444,0.599,551
2022-01-30T06:32:34,42.805,6.029,CST-1368DR,4942,6222,13449,0.598,551
2022-01-30T06:35:35,42.805,6.029,CST-1368DR,4941,6223,13452,0.597,551
2022-01-30T06:38:37,42.805,6.029,CST-1368DR,4942,6223,13450,0.597,550
2022-01-30T06:41:39,42.805,6.029,CST-1368DR,4942,6222,13449,0.598,551
2022-01-30T06:44:40,42.805,6.029,CST-1368DR,4942,6222,13448,0.598,551
2022-01-30T06:47:42,42.805,6.029,CST-1368DR,4942,6221,13446,0.598,551
2022-01-30T06:50:43,42.805,6.029,CST-1368DR,4942,6220,13445,0.599,551
2022-01-30T06:53:45,42.805,6.029,CST-1368DR,4942,6223,13450,0.597,551
2022-01-30T06:56:46,42.805,6.029,CST-1368DR,4941,6219,13444,0.599,551
2022-01-30T06:59:48,42.805,6.029,CST-1368DR,4942,6222,13448,0.598,551
2022-01-30T07:02:50,42.805,6.029,CST-1368DR,4942,6223,13451,0.597,551
2022-01-30T07:05:51,42.805,6.029,CST-1368DR,4942,6222,13448,0.598,551
2022-01-30T07:08:53,42.805,6.029,CST-1368DR,4941,6221,13449,0.598,551
2022-01-30T07:11:54,42.805,6.029,CST-1368DR,4941,6220,13447,0.598,551
2022-01-30T07:14:56,42.805,6.029,CST-1368DR,4941,6222,13451,0.597,551
2022-01-30T07:17:58,42.805,6.029,CST-1368DR,4942,6221,13446,0.598,551
2022-01-30T07:20:59,42.805,6.029,CST-1368DR,4941,6221,13449,0.598,551
2022-01-30T07:24:01,42.805,6.029,CST-1368DR,4941,6221,13449,0.598,551
2022-01-30T07:27:02,42.805,6.029,CST-1368DR,4941,6222,13450,0.597,551
2022-01-30T07:30:04,42.805,6.029,CST-1368DR,4942,6221,13447,0.598,551
2022-01-30T07:33:05,42.805,6.029,CST-1368DR,4941,6222,13451,0.597,551
2022-01-30T07:36:07,42.805,6.029,CST-1368DR,4941,6222,13451,0.597,551
2022-01-30T07:39:09,42.805,6.029,CST-1368DR,4941,6222,13451,0.597,551
2022-01-30T07:42:10,42.805,6.029,CST-1368DR,4941,6221,13449,0.598,551
2022-01-30T07:45:12,42.805,6.029,CST-1368DR,4941,6222,13451,0.597,551
2022-01-30T07:48:13,42.805,6.029,CST-1368DR,4941,6222,13451,0.597,551
2022-01-30T07:51:15,42.805,6.029,CST-1368DR,4941,6220,13447,0.598,551
2022-01-30T07:54:17,42.805,6.029,CST-1368DR,4941,6221,13449,0.598,551
2022-01-30T07:57:18,42.805,6.029,CST-1368DR,4941,6222,13450,0.597,551
2022-01-30T08:00:20,42.805,6.029,CST-1368DR,4941,6222,13451,0.597,551
2022-01-30T08:03:21,42.805,6.029,CST-1368DR,4941,6221,13448,0.598,551
2022-01-30T08:06:23,42.805,6.029,CST-1368DR,4941,6221,13448,0.598,551
2022-01-30T08:09:24,42.805,6.029,CST-1368DR,4941,6222,13451,0.597,551
2022-01-30T08:12:26,42.805,6.029,CST-1368DR,4941,6221,13449,0.598,551
2022-01-30T08:15:28,42.805,6.029,CST-1368DR,4941,6221,13448,0.598,551
2022-01-30T08:18:29,42.805,6.029,CST-1368DR,4941,6221,13448,0.598,551
2022-01-30T08:21:31,42.805,6.029,CST-1368DR,4941,6221,13448,0.598,551
2022-01-30T08:24:32,42.805,6.029,CST-1368DR,4941,6222,13450,0.597,551
2022-01-30T08:27:34,42.805,6.029,CST-1368DR,4941,6221,13449,0.598,551
2022-01-30T08:30:35,42.805,6.029,CST-1368DR,4941,6221,13448,0.598,551
2022-01-30T08:33:37,42.805,6.029,CST-1368DR,4941,6221,13449,0.598,551
2022-01-30T08:36:39,42.805,6.029,CST-1368DR,4941,6220,13447,0.598,551
2022-01-30T08:39:40,42.805,6.029,CST-1368DR,4941,6221,13448,0.598,551
2022-01-30T08:42:42,42.805,6.029,CST-1368DR,4941,6220,13447,0.598,551
2022-01-30T08:45:43,42.805,6.029,CST-1368DR,4941,6221,13449,0.598,550
2022-01-30T08:48:45,42.805,6.029,CST-1368DR,4941,6221,13448,0.598,551
2022-01-30T08:51:47,42.805,6.029,CST-1368DR,4941,6221,13448,0.598,551
2022-01-30T08:54:48,42.805,6.029,CST-1368DR,4941,6221,13448,0.598,551
2022-01-30T08:57:50,42.805,6.029,CST-1368DR,4941,6220,13447,0.598,551
2022-01-30T09:00:51,42.805,6.029,CST-1368DR,4941,6218,13442,0.600,551
2022-01-30T09:03:53,42.805,6.029,CST-1368DR,4941,6221,13448,0.598,551
2022-01-30T09:06:54,42.805,6.029,CST-1368DR,4941,6220,13447,0.598,551
2022-01-30T09:09:56,42.805,6.029,CST-1368DR,4941,6221,13448,0.598,551
2022-01-30T09:12:58,42.805,6.029,CST-1368DR,4941,6222,13451,0.597,551
2022-01-30T09:15:59,42.805,6.029,CST-1368DR,4941,6221,13448,0.598,551
2022-01-30T09:19:01,42.805,6.029,CST-1368DR,4941,6222,13450,0.597,551
2022-01-30T09:22:02,42.805,6.029,CST-1368DR,4941,6221,13449,0.598,551
2022-01-30T09:25:04,42.805,6.029,CST-1368DR,4941,6221,13448,0.598,551
2022-01-30T09:28:05,42.805,6.029,CST-1368DR,4941,6220,13447,0.598,551
2022-01-30T09:31:07,42.805,6.029,CST-1368DR,4941,6220,13447,0.598,551
2022-01-30T09:34:09,42.805,6.029,CST-1368DR,4941,6220,13447,0.598,551
2022-01-30T09:37:10,42.805,6.029,CST-1368DR,4941,6220,13447,0.598,551
2022-01-30T09:40:12,42.805,6.029,CST-1368DR,4941,6222,13451,0.597,551
2022-01-30T09:43:13,42.805,6.029,CST-1368DR,4941,6223,13452,0.597,551
2022-01-30T09:46:15,42.805,6.029,CST-1368DR,4941,6224,13455,0.596,551
2022-01-30T09:49:17,42.805,6.029,CST-1368DR,4941,6223,13454,0.596,551
2022-01-30T09:52:18,42.805,6.029,CST-1368DR,4941,6224,13455,0.596,551
2022-01-30T09:55:20,42.805,6.029,CST-1368DR,4941,6223,13452,0.597,551
2022-01-30T09:58:21,42.805,6.029,CST-1368DR,4941,6223,13453,0.596,551
2022-01-30T10:01:23,42.805,6.029,CST-1368DR,4941,6224,13454,0.596,551
2022-01-30T10:04:24,42.805,6.029,CST-1368DR,4941,6223,13454,0.596,551
2022-01-30T10:07:26,42.805,6.029,CST-1368DR,4941,6222,13451,0.597,551
2022-01-30T10:10:28,42.805,6.029,CST-1368DR,4941,6223,13452,0.597,551
2022-01-30T10:13:29,42.805,6.029,CST-1368DR,4941,6222,13451,0.597,551
2022-01-30T10:16:31,42.805,6.029,CST-1368DR,4941,6222,13451,0.597,551
2022-01-30T10:19:32,42.805,6.029,CST-1368DR,4941,6223,13454,0.596,551
2022-01-30T10:22:34,42.805,6.029,CST-1368DR,4941,6222,13451,0.597,551
2022-01-30T10:25:36,42.805,6.029,CST-1368DR,4941,6223,13453,0.596,551
2022-01-30T10:28:37,42.805,6.029,CST-1368DR,4941,6223,13454,0.596,551
2022-01-30T10:31:39,42.805,6.029,CST-1368DR,4941,6224,13454,0.596,551
2022-01-30T10:34:40,42.805,6.029,CST-1368DR,4941,6223,13452,0.597,551
2022-01-30T10:37:42,42.805,6.029,CST-1368DR,4941,6223,13453,0.596,551
2022-01-30T10:40:43,42.805,6.029,CST-1368DR,4941,6223,13452,0.597,551
2022-01-30T10:43:45,42.805,6.029,CST-1368DR,4941,6221,13449,0.598,551
2022-01-30T10:46:47,42.805,6.029,CST-1368DR,4941,6221,13448,0.598,550
2022-01-30T10:49:48,42.805,6.029,CST-1368DR,4941,6222,13451,0.597,551
2022-01-30T10:52:50,42.805,6.029,CST-1368DR,4941,6223,13453,0.596,551
2022-01-30T10:55:51,42.805,6.029,CST-1368DR,4941,6223,13453,0.596,551
2022-01-30T10:58:53,42.805,6.029,CST-1368DR,4941,6221,13448,0.598,551
2022-01-30T11:01:55,42.805,6.029,CST-1368DR,4941,6222,13451,0.597,551
2022-01-30T11:04:56,42.805,6.029,CST-1368DR,4941,6223,13452,0.597,551
2022-01-30T11:07:58,42.805,6.029,CST-1368DR,4941,6222,13452,0.597,551
2022-01-30T11:10:59,42.805,6.029,CST-1368DR,4941,6222,13452,0.597,551
2022-01-30T11:14:01,42.805,6.029,CST-1368DR,4941,6219,13445,0.599,551
2022-01-30T11:17:02,42.805,6.029,CST-1368DR,4941,6223,13452,0.597,551
2022-01-30T11:20:04,42.805,6.029,CST-1368DR,4941,6223,13453,0.596,551
2022-01-30T11:23:06,42.805,6.029,CST-1368DR,4941,6223,13454,0.596,551
2022-01-30T11:26:07,42.805,6.029,CST-1368DR,4941,6222,13451,0.597,551
2022-01-30T11:29:09,42.805,6.029,CST-1368DR,4941,6222,13451,0.597,551
2022-01-30T11:32:10,42.805,6.029,CST-1368DR,4941,6223,13452,0.597,551
2022-01-30T11:35:12,42.805,6.029,CST-1368DR,4941,6222,13451,0.597,551
2022-01-30T11:38:14,42.805,6.029,CST-1368DR,4941,6221,13449,0.598,551
2022-01-30T11:41:15,42.805,6.029,CST-1368DR,4941,6223,13452,0.597,551
2022-01-30T11:44:17,42.805,6.029,CST-1368DR,4941,6222,13451,0.597,551
2022-01-30T11:47:18,42.805,6.029,CST-1368DR,4941,6222,13451,0.597,551
2022-01-30T11:50:20,42.805,6.029,CST-1368DR,4941,6222,13450,0.597,551
2022-01-30T11:53:21,42.805,6.029,CST-1368DR,4941,6222,13452,0.597,551
2022-01-30T11:56:23,42.805,6.029,CST-1368DR,4941,6221,13449,0.598,551
2022-01-30T11:59:25,42.805,6.029,CST-1368DR,4941,6222,13452,0.597,551
2022-01-30T12:02:26,42.805,6.029,CST-1368DR,4941,6222,13451,0.597,551
2022-01-30T12:05:28,42.805,6.029,CST-1368DR,4941,6221,13449,0.598,551
2022-01-30T12:08:29,42.805,6.029,CST-1368DR,4941,6222,13450,0.597,551
2022-01-30T12:11:31,42.805,6.029,CST-1368DR,4941,6223,13452,0.597,551
2022-01-30T12:14:32,42.805,6.029,CST-1368DR,4941,6219,13444,0.599,551
2022-01-30T12:17:34,42.805,6.029,CST-1368DR,4941,6221,13449,0.598,551
2022-01-30T12:20:36,42.805,6.029,CST-1368DR,4941,6222,13452,0.597,551
2022-01-30T12:23:37,42.805,6.029,CST-1368DR,4941,6222,13452,0.597,551
2022-01-30T12:26:39,42.805,6.029,CST-1368DR,4941,6222,13451,0.597,551
2022-01-30T12:29:40,42.805,6.029,CST-1368DR,4941,6221,13448,0.598,551
2022-01-30T12:32:42,42.805,6.029,CST-1368DR,4941,6222,13452,0.597,551
2022-01-30T12:35:44,42.805,6.029,CST-1368DR,4941,6220,13447,0.598,551
2022-01-30T12:38:45,42.805,6.029,CST-1368DR,4941,6222,13451,0.597,551
2022-01-30T12:41:47,42.805,6.029,CST-1368DR,4941,6222,13451,0.597,551
2022-01-30T12:44:48,42.805,6.029,CST-1368DR,4941,6221,13449,0.598,551
2022-01-30T12:47:50,42.805,6.029,CST-1368DR,4941,6222,13451,0.597,551
2022-01-30T12:50:51,42.805,6.029,CST-1368DR,4941,6222,13451,0.597,551
2022-01-30T13:00:06,42.805,6.029,CST-1368DR,4941,6222,13451,0.597,551
2022-01-30T13:03:08,42.805,6.029,CST-1368DR,4941,6222,13452,0.597,551
2022-01-30T13:06:09,42.805,6.029,CST-1368DR,4941,6222,13450,0.597,551
2022-01-30T13:09:11,42.805,6.029,CST-1368DR,4941,6222,13451,0.597,551
2022-01-30T13:12:12,42.805,6.029,CST-1368DR,4941,6221,13449,0.598,551
2022-01-30T13:15:14,42.805,6.029,CST-1368DR,4941,6219,13445,0.599,551
2022-01-30T13:18:16,42.805,6.029,CST-1368DR,4941,6221,13449,0.598,551
2022-01-30T13:21:17,42.805,6.029,CST-1368DR,4941,6221,13448,0.598,551
2022-01-30T13:24:19,42.805,6.029,CST-1368DR,4941,6220,13447,0.598,551
2022-01-30T13:27:20,42.805,6.029,CST-1368DR,4941,6222,13450,0.597,551
2022-01-30T13:30:22,42.805,6.029,CST-1368DR,4941,6221,13449,0.598,551
2022-01-30T13:33:23,42.805,6.029,CST-1368DR,4941,6220,13446,0.598,551
2022-01-30T13:36:25,42.805,6.029,CST-1368DR,4941,6218,13443,0.599,551
2022-01-30T13:39:27,42.805,6.029,CST-1368DR,4941,6221,13448,0.598,551
2022-01-30T13:42:28,42.805,6.029,CST-1368DR,4941,6221,13449,0.598,551
2022-01-30T13:45:30,42.805,6.029,CST-1368DR,4941,6221,13448,0.598,551
2022-01-30T13:48:31,42.805,6.029,CST-1368DR,4941,6221,13448,0.598,551
2022-01-30T13:51:33,42.805,6.029,CST-1368DR,4941,6221,13448,0.598,551
2022-01-30T13:54:34,42.805,6.029,CST-1368DR,4941,6219,13445,0.599,551
2022-01-30T13:57:36,42.805,6.029,CST-1368DR,4941,6219,13445,0.599,551
2022-01-30T14:00:38,42.805,6.029,CST-1368DR,4941,6220,13447,0.598,551
2022-01-30T14:03:39,42.805,6.029,CST-1368DR,4941,6220,13447,0.598,551
2022-01-30T14:06:41,42.805,6.029,CST-1368DR,4941,6221,13449,0.598,551
2022-01-30T14:09:42,42.805,6.029,CST-1368DR,4941,6220,13447,0.598,551
2022-01-30T14:12:44,42.805,6.029,CST-1368DR,4941,6219,13445,0.599,551
2022-01-30T14:15:46,42.805,6.029,CST-1368DR,4941,6219,13444,0.599,551
2022-01-30T14:18:47,42.805,6.029,CST-1368DR,4941,6220,13447,0.598,551
2022-01-30T14:21:49,42.805,6.029,CST-1368DR,4941,6218,13442,0.600,551
2022-01-30T14:24:50,42.805,6.029,CST-1368DR,4941,6219,13444,0.599,551
2022-01-30T14:27:52,42.805,6.029,CST-1368DR,4941,6221,13448,0.598,551
2022-01-30T14:30:53,42.805,6.029,CST-1368DR,4941,6221,13448,0.598,551
2022-01-30T14:33:55,42.805,6.029,CST-1368DR,4941,6221,13448,0.598,551
2022-01-30T14:36:57,42.805,6.029,CST-1368DR,4941,6221,13448,0.598,550
2022-01-30T14:39:58,42.805,6.029,CST-1368DR,4941,6221,13448,0.598,551
2022-01-30T14:43:00,42.805,6.029,CST-1368DR,4941,6219,13445,0.599,551
2022-01-30T14:46:01,42.805,6.029,CST-1368DR,4941,6219,13445,0.599,551
2022-01-30T14:49:03,42.805,6.029,CST-1368DR,4941,6221,13448,0.598,551
2022-01-30T14:52:05,42.805,6.029,CST-1368DR,4941,6218,13442,0.600,551
2022-01-30T14:55:06,42.805,6.029,CST-1368DR,4941,6221,13448,0.598,550
2022-01-30T14:58:08,42.805,6.029,CST-1368DR,4941,6219,13444,0.599,551
2022-01-30T15:01:09,42.805,6.029,CST-1368DR,4941,6221,13448,0.598,551
2022-01-30T15:04:11,42.805,6.029,CST-1368DR,4941,6221,13448,0.598,551
2022-01-30T15:07:12,42.805,6.029,CST-1368DR,4941,6220,13447,0.598,551
2022-01-30T15:10:14,42.805,6.029,CST-1368DR,4941,6220,13447,0.598,551
2022-01-30T15:13:16,42.805,6.029,CST-1368DR,4941,6221,13448,0.598,551
2022-01-30T15:16:17,42.805,6.029,CST-1368DR,4941,6220,13447,0.598,551
2022-01-30T15:19:19,42.805,6.029,CST-1368DR,4941,6221,13448,0.598,551
2022-01-30T15:22:20,42.805,6.029,CST-1368DR,4941,6221,13448,0.598,551
2022-01-30T15:25:22,42.805,6.029,CST-1368DR,4941,6221,13449,0.598,551
2022-01-30T15:28:24,42.805,6.029,CST-1368DR,4941,6221,13449,0.598,551
2022-01-30T15:31:25,42.805,6.029,CST-1368DR,4941,6220,13447,0.598,551
2022-01-30T15:34:27,42.805,6.029,CST-1368DR,4941,6221,13448,0.598,551
2022-01-30T15:37:28,42.805,6.029,CST-1368DR,4941,6219,13445,0.599,551
2022-01-30T15:40:30,42.805,6.029,CST-1368DR,4941,6221,13448,0.598,551
2022-01-30T15:43:31,42.805,6.029,CST-1368DR,4941,6219,13445,0.599,551
2022-01-30T15:46:33,42.805,6.029,CST-1368DR,4941,6220,13447,0.598,551
2022-01-30T15:49:35,42.805,6.029,CST-1368DR,4941,6220,13446,0.598,551
2022-01-30T15:52:36,42.805,6.029,CST-1368DR,4941,6220,13447,0.598,551
2022-01-30T15:55:38,42.805,6.029,CST-1368DR,4941,6221,13448,0.598,551
2022-01-30T15:58:39,42.805,6.029,CST-1368DR,4941,6221,13448,0.598,551
2022-01-30T16:01:41,42.805,6.029,CST-1368DR,4941,6220,13447,0.598,551
2022-01-30T16:04:42,42.805,6.029,CST-1368DR,4941,6219,13445,0.599,551
2022-01-30T16:07:44,42.805,6.029,CST-1368DR,4941,6220,13447,0.598,551
2022-01-30T16:10:46,42.805,6.029,CST-1368DR,4941,6221,13448,0.598,551
2022-01-30T16:13:47,42.805,6.029,CST-1368DR,4941,6220,13447,0.598,551
2022-01-30T16:16:49,42.805,6.029,CST-1368DR,4941,6220,13446,0.598,551
2022-01-30T16:19:50,42.805,6.029,CST-1368DR,4941,6219,13445,0.599,551
2022-01-30T16:22:52,42.805,6.029,CST-1368DR,4941,6221,13448,0.598,551
2022-01-30T16:25:54,42.805,6.029,CST-1368DR,4941,6219,13445,0.599,551
2022-01-30T16:28:55,42.805,6.029,CST-1368DR,4941,6220,13447,0.598,551
2022-01-30T16:31:57,42.805,6.029,CST-1368DR,4941,6220,13446,0.598,551
2022-01-30T16:34:58,42.805,6.029,CST-1368DR,4941,6220,13447,0.598,551
2022-01-30T16:38:00,42.805,6.029,CST-1368DR,4941,6220,13446,0.598,551
2022-01-30T16:41:01,42.805,6.029,CST-1368DR,4941,6221,13448,0.598,551
2022-01-30T16:44:03,42.805,6.029,CST-1368DR,4941,6219,13445,0.599,551
2022-01-30T16:47:05,42.805,6.029,CST-1368DR,4941,6220,13447,0.598,551
2022-01-30T16:50:06,42.805,6.029,CST-1368DR,4941,6220,13447,0.598,551
2022-01-30T16:53:08,42.805,6.029,CST-1368DR,4941,6220,13447,0.598,551
2022-01-30T16:56:09,42.805,6.029,CST-1368DR,4941,6220,13447,0.598,551
2022-01-30T16:59:11,42.805,6.029,CST-1368DR,4941,6220,13447,0.598,551